Powrót do katalogu

STARLINK-32113

AktywnyŁącznośćVLEO
NORAD 60282·PAYLOAD·🇺🇸 United States

Wystrzelony Jul 28, 2024 z Cape Canaveral Space Force Station

Loading…

Następne Przeloty (najbliższe 24 godziny)

TLE

ŚwieżeSource: CelesTrak SupGP

Epoka: Sep 14, 2026, 21:10 UTC

1 60282C 24132E   26257.88243056 -.00016138  00000+0 -47754-3 0  2575
2 60282  53.1560 251.7430 0001489  87.6577 269.6394 15.34349301    17

Śledź STARLINK-32113 w czasie rzeczywistym z AllMySat

Download on the App Store